Lake Allatoona Weather Center

Moon Phase Calendar



Lake Allatoona Water Level
Online Cameras

 


      

Current Conditions in Acworth
4/19/2024 6:22:39 PM

81°F
Feels Like 84
Clouds
Humidity
62%
Pressure
29.97"
Wind
8 mph (W)
Dew Point
67°F
UV Index
2/10 (Low)
Visibility
6 mi

Hourly Forecast

Date & Time Fri, Apr 19
6:00 PM
Fri, Apr 19
7:00 PM
Fri, Apr 19
8:00 PM
Fri, Apr 19
9:00 PM
Fri, Apr 19
10:00 PM
Fri, Apr 19
11:00 PM
Sat, Apr 20
12:00 AM
Sat, Apr 20
1:00 AM
Sat, Apr 20
2:00 AM
Sat, Apr 20
3:00 AM
Sat, Apr 20
4:00 AM
Sat, Apr 20
5:00 AM
Sat, Apr 20
6:00 AM
Sat, Apr 20
7:00 AM
Sat, Apr 20
8:00 AM
Sat, Apr 20
9:00 AM
Sat, Apr 20
10:00 AM
Sat, Apr 20
11:00 AM
Sat, Apr 20
12:00 PM
Sat, Apr 20
1:00 PM
Sat, Apr 20
2:00 PM
Sat, Apr 20
3:00 PM
Sat, Apr 20
4:00 PM
Sat, Apr 20
5:00 PM
Sat, Apr 20
6:00 PM
Sat, Apr 20
7:00 PM
Sat, Apr 20
8:00 PM
Sat, Apr 20
9:00 PM
Sat, Apr 20
10:00 PM
Sat, Apr 20
11:00 PM
Sun, Apr 21
12:00 AM
Sun, Apr 21
1:00 AM
Sun, Apr 21
2:00 AM
Sun, Apr 21
3:00 AM
Sun, Apr 21
4:00 AM
Sun, Apr 21
5:00 AM
Sun, Apr 21
6:00 AM
Sun, Apr 21
7:00 AM
Sun, Apr 21
8:00 AM
Sun, Apr 21
9:00 AM
Sun, Apr 21
10:00 AM
Sun, Apr 21
11:00 AM
Sun, Apr 21
12:00 PM
Sun, Apr 21
1:00 PM
Sun, Apr 21
2:00 PM
Sun, Apr 21
3:00 PM
Sun, Apr 21
4:00 PM
Sun, Apr 21
5:00 PM
Condition
Clouds

Clouds

Clouds

Clouds

Clouds

Clouds

Clouds

Clouds

Clouds

Clouds

Clouds

Clouds

Clouds

Clouds

Clouds

Clouds

Clouds

Clouds

Clouds

Clouds

Clouds

Clouds

Clouds

Clouds

Clouds

Clouds

Clouds

Clouds

Clouds

Clouds

Rain

Clouds

Clouds

Clouds

Rain

Clouds

Rain

Rain

Rain

Rain

Rain

Rain

Rain

Rain

Rain

Rain

Rain

Rain
Temperature 81°F80°F77°F73°F69°F66°F64°F63°F62°F60°F59°F58°F57°F56°F57°F59°F63°F67°F69°F70°F71°F71°F70°F69°F66°F61°F58°F58°F57°F57°F56°F55°F54°F53°F52°F52°F51°F49°F49°F48°F49°F50°F50°F48°F47°F47°F46°F47°F
Feels Like 84°F80°F77°F74°F70°F67°F65°F63°F63°F60°F59°F58°F57°F56°F57°F59°F63°F66°F68°F70°F71°F70°F69°F68°F64°F59°F57°F56°F55°F55°F54°F53°F52°F52°F51°F51°F49°F46°F46°F46°F48°F49°F49°F45°F43°F43°F43°F44°F
Cloudiness 20%25%27%39%59%80%85%88%90%98%99%99%100%100%99%77%82%86%86%87%88%100%100%100%100%100%100%100%100%100%100%100%100%100%100%100%100%100%100%100%100%100%100%100%100%100%100%100%
Visibility 6 mi6 mi6 mi6 mi6 mi6 mi6 mi6 mi6 mi6 mi6 mi6 mi6 mi6 mi6 mi6 mi6 mi6 mi6 mi6 mi6 mi6 mi6 mi6 mi6 mi6 mi6 mi6 mi6 mi6 mi6 mi6 mi6 mi6 mi6 mi6 mi6 mi6 mi3 mi6 mi6 mi6 mi4 mi4 mi5 mi5 mi6 mi6 mi
Precipitation 67%80%78%26%12%4%0%0%0%0%0%0%0%0%0%0%0%0%0%0%0%0%0%0%0%0%0%0%0%0%20%0%0%0%20%0%54%90%99%100%100%100%100%100%100%100%100%100%
Humidity 62%65%72%81%88%96%97%96%95%96%95%94%94%93%91%85%76%66%59%55%52%51%50%49%53%56%57%57%57%59%68%68%66%71%78%77%81%91%93%97%95%94%94%96%96%95%96%95%
Dew Point 67°F67°F67°F67°F66°F64°F63°F61°F60°F59°F58°F56°F55°F54°F54°F55°F55°F55°F54°F53°F53°F51°F50°F49°F48°F45°F43°F43°F42°F42°F45°F44°F43°F44°F45°F45°F45°F46°F47°F47°F48°F48°F48°F47°F46°F45°F45°F46°F
Pressure 29.97"29.97"29.97"30"30"30.03"30.03"30.03"30.03"30.03"30.03"30.03"30.03"30.06"30.09"30.09"30.09"30.12"30.09"30.09"30.06"30.06"30.06"30.03"30.06"30.06"30.06"30.06"30.09"30.06"30.06"30.06"30.06"30.03"30.06"30.06"30.06"30.09"30.09"30.09"30.09"30.09"30.12"30.12"30.09"30.09"30.09"30.06"
Wind Speed 10.1 mph7.9 mph5.8 mph4.7 mph4.2 mph4.8 mph5.7 mph5.6 mph6.6 mph5.8 mph7.1 mph6.9 mph6.5 mph6.6 mph6.6 mph7.4 mph8.6 mph11.5 mph11.4 mph11.5 mph11.4 mph11.6 mph11.9 mph11.5 mph11.9 mph11.3 mph9.2 mph6.9 mph6.1 mph6.5 mph8.3 mph7.5 mph6.3 mph4.6 mph5.1 mph3.9 mph5.8 mph6 mph5.7 mph5.9 mph4.7 mph4.1 mph4.3 mph7.7 mph8.8 mph8.2 mph6.2 mph6.2 mph
Wind
Direction
288°
WNW
298°
WNW
311°
NW
322°
NW
320°
NW
308°
NW
313°
NW
312°
NW
320°
NW
315°
NW
313°
NW
316°
NW
312°
NW
312°
NW
318°
NW
316°
NW
312°
NW
318°
NW
321°
NW
324°
NW
318°
NW
320°
NW
316°
NW
320°
NW
322°
NW
323°
NW
325°
NW
324°
NW
322°
NW
313°
NW
312°
NW
327°
NNW
347°
NNW
320°
NW
337°
NNW
351°
N
320°
NW
343°
NNW
331°
NNW
353°
N

N
26°
NNE
328°
NNW
326°
NW
343°
NNW
325°
NW
338°
NNW
333°
NNW

Daily Forecast

Date High Low Precip. Humidity
Today
Apr 19

Rain
83 °F
64 °F
100%
57%
Saturday
Apr 20

Clouds
71 °F
56 °F
0%
55%
Sunday
Apr 21

Rain
56 °F
45 °F
100%
96%
Monday
Apr 22

Clouds
62 °F
40 °F
0%
59%
Tuesday
Apr 23

Clear
71 °F
45 °F
0%
36%
Wednesday
Apr 24

Clouds
71 °F
53 °F
0%
37%
Thursday
Apr 25

Clouds
71 °F
44 °F
0%
28%
Friday
Apr 26

Clouds
77 °F
53 °F
0%
32%
Saturday
Apr 27

Rain
82 °F
59 °F
100%
41%
Sunday
Apr 28

Rain
87 °F
64 °F
100%
42%
Monday
Apr 29

Rain
86 °F
65 °F
100%
37%
Tuesday
Apr 30

Rain
82 °F
65 °F
100%
52%
Wednesday
May 1

Clouds
85 °F
63 °F
79%
37%
Thursday
May 2

Rain
87 °F
64 °F
100%
42%
Friday
May 3

Rain
76 °F
66 °F
100%
79%
Saturday
May 4

Rain
87 °F
66 °F
100%
52%

Temperature 8-14 Day Outlook



Precipitation 8-14 Day Outlook






About Us
Contact Us
Site Map
Search Site
Advertise With Us
   
Allatoona.USLakes.info
THE LAKE ALLATOONA WEBSITE

Copyright 2024, Lakes Online
Privacy    |    Legal